Location: ??? ?????
(30.6482°N, 60.5850°E)
Time: 18:46:38
(UTC+00:00)

Cosmos 2151 Rocket - Pass Details

Date: 09 April 2020
Orbit: 618 x 641 km, 82.5° (Epoch: 06 June)

Event Time Altitude Azimuth Distance (km) Brightness Sun altitude
Rises 23:43:09 0° 353° (N) 2,895 7.2 -23.9°
Reaches altitude 10° 23:45:22 10° 353° (N) 1,986 6.4 -23.4°
Maximum altitude 23:49:46 87° 266° (W) 624 3.4 -22.6°
Enters shadow 23:51:13 42° 178° (S) 880 4.1 -22.3°
